Theta_e
336 336 337 335 335 336 334 333 333 331 331 331 332 330 326 323 321 320 319 318 318 317 317 316 316 316 316 317 318 319 320 321 326 330 327 327 326 324 324 324 323 322 323
334 335 336 337 336 336 335 333 334 332 332 333 333 330 326 323 321 320 319 319 319 319 318 317 317 316 316 317 317 318 318 320 324 327 328 327 325 324 323 320 320 321 322
336 334 334 337 337 337 336 332 333 333 334 334 333 330 326 323 321 320 320 320 320 320 319 319 318 317 317 317 317 317 317 320 323 326 327 329 328 328 328 324 322 323 323
337 332 333 335 336 336 336 333 333 333 334 334 332 329 326 323 320 320 321 321 321 321 321 320 320 319 318 318 318 318 319 321 324 329 330 330 331 332 332 329 326 326 325
338 334 333 334 334 334 334 334 335 335 335 334 332 330 327 324 321 321 322 322 322 322 322 321 321 321 320 319 319 318 320 324 330 330 331 331 329 332 331 329 328 328 329
339 336 335 336 336 335 335 336 335 336 335 334 332 331 328 325 322 321 322 322 321 322 322 323 323 322 322 321 320 319 319 322 326 330 331 327 332 332 330 330 329 329 330
340 338 335 336 336 336 336 336 335 335 335 334 333 332 329 327 324 322 322 322 322 322 321 321 320 320 321 323 323 321 320 322 326 331 333 333 332 331 328 329 329 329 328
339 339 338 335 334 334 335 335 334 333 333 333 333 332 330 326 325 323 323 323 323 322 322 320 317 316 316 318 322 323 324 328 331 333 333 332 331 330 324 326 325 326 327
339 338 338 337 334 334 334 334 334 334 333 333 332 332 330 328 326 325 323 324 324 322 321 320 315 312 312 314 318 323 326 329 332 333 330 329 328 327 326 322 324 319 320
337 337 338 336 334 334 334 333 333 333 333 333 333 333 331 329 327 326 325 324 325 325 323 321 315 312 311 311 316 324 327 330 331 331 330 327 325 324 322 318 317 315 316
336 336 335 335 334 333 333 333 333 333 333 334 334 333 331 329 327 327 327 325 326 327 325 323 318 312 310 310 314 325 328 330 330 330 328 325 325 324 323 314 312 312 309
334 336 336 333 333 333 333 333 333 334 334 334 334 333 331 329 328 328 327 325 326 328 328 327 322 314 309 309 310 320 326 330 330 329 327 327 326 325 322 314 310 308 308
332 332 334 336 335 333 333 334 335 335 335 335 334 332 330 329 328 328 328 326 325 327 329 329 327 320 310 309 309 314 325 326 328 327 326 327 327 324 321 318 309 308 307
329 329 331 335 337 337 336 333 332 332 333 333 331 329 329 329 329 328 329 328 330 329 328 328 328 323 314 309 308 308 319 329 329 326 325 326 327 323 320 314 308 308 307
329 328 329 333 335 335 334 334 332 328 328 327 328 330 330 330 331 331 331 330 330 330 328 329 328 328 317 310 308 308 309 320 328 326 325 326 324 322 320 316 309 307 310
329 329 331 332 333 332 333 331 329 327 328 332 333 333 333 333 332 331 332 333 331 329 330 329 327 326 322 314 309 309 309 312 323 325 325 324 322 321 320 318 316 309 311
331 330 332 334 334 334 333 333 333 334 334 334 333 333 334 334 335 335 334 334 332 330 330 331 329 327 326 319 312 310 312 314 320 322 322 322 321 321 319 318 316 311 312
332 332 333 335 335 335 335 334 335 336 334 334 333 332 332 333 332 332 332 332 331 331 330 330 329 328 327 322 320 311 317 318 318 319 321 321 320 319 319 318 316 311 310
333 335 334 337 336 335 336 336 336 336 334 335 335 334 331 332 333 331 330 331 330 328 328 328 327 328 326 323 316 311 315 318 319 320 320 320 320 318 318 317 314 314 313
333 336 336 337 337 336 337 337 337 337 337 337 334 332 329 330 331 330 331 328 330 327 328 327 326 326 326 323 320 313 314 317 317 317 320 320 318 318 317 316 314 312 312
328 335 338 338 338 337 337 337 337 337 335 332 331 330 330 325 326 324 325 326 329 326 325 324 323 322 323 322 320 316 315 313 315 320 320 319 317 318 316 314 312 310 310
327 332 338 339 339 337 338 336 335 334 332 329 328 317 311 311 312 313 315 316 322 322 324 323 322 322 320 321 319 316 314 314 316 318 317 317 316 315 313 313 311 308 310
331 335 339 340 339 338 338 337 334 329 320 312 310 310 310 309 310 312 315 321 321 322 319 318 319 320 321 320 319 317 314 314 314 315 316 314 311 312 310 310 308 306 310
336 337 339 340 338 338 336 334 322 311 311 310 310 308 309 311 310 308 309 310 318 318 317 316 318 318 319 319 318 318 316 316 313 310 311 311 308 309 308 306 305 307 306
337 339 339 338 337 337 326 311 311 310 310 308 307 309 311 311 310 311 311 310 312 315 315 317 317 316 319 317 315 317 314 316 314 313 309 309 308 306 304 302 302 303 307
336 337 337 336 330 312 311 311 310 309 308 307 307 308 311 313 313 313 313 312 310 309 310 312 312 316 313 313 314 316 314 315 314 314 311 306 306 303 301 301 300 302 302
Wind_Speed
18 27 28 26 23 20 18 16 15 14 14 13 11 9 7 8 8 8 8 8 8 8 7 7 7 8 7 6 5 5 5 6 7 7 9 10 10 10 10 10 9 11 12
16 28 28 28 25 21 18 16 14 12 11 10 8 7 7 7 8 8 7 6 6 7 7 7 7 7 7 7 7 6 6 6 7 7 6 6 8 8 8 9 9 10 10
16 26 27 27 25 22 21 19 17 15 12 11 9 7 6 7 7 7 7 6 6 6 6 6 6 6 6 6 6 6 6 6 6 5 5 4 5 6 7 8 9 9 9
17 23 26 26 25 24 23 21 19 18 16 13 12 10 8 7 7 7 7 7 6 5 4 5 6 5 5 5 5 5 5 5 5 6 5 2 5 6 5 6 7 8 8
19 20 24 25 24 24 23 21 20 18 15 12 10 8 7 7 7 6 7 6 6 5 5 5 5 5 5 5 5 5 5 5 5 4 4 5 5 5 4 4 3 5 6
18 18 21 22 22 21 20 18 17 16 14 12 9 7 5 5 5 4 4 4 3 4 5 5 6 6 6 6 6 7 7 7 6 4 4 6 4 5 1 2 2 3 4
16 16 18 20 20 20 19 18 16 15 14 11 8 6 5 5 5 4 4 3 2 2 3 4 6 7 7 8 8 7 8 8 8 6 5 6 5 4 3 2 1 1 2
11 14 18 20 22 22 21 19 18 17 15 13 10 8 7 7 7 5 5 4 4 3 4 5 6 7 8 9 8 8 9 9 8 7 7 6 3 5 8 4 2 2 2
12 13 16 19 21 21 20 19 18 16 15 13 12 10 9 8 8 7 6 7 7 6 5 6 6 8 9 9 10 10 10 9 9 8 8 7 6 8 9 7 6 5 7
12 13 14 18 20 21 20 19 17 16 15 14 13 12 11 9 10 9 8 8 9 8 7 7 7 8 11 11 11 11 12 12 11 10 10 7 7 6 8 14 7 6 7
13 12 13 17 19 19 19 18 18 17 16 14 14 13 12 12 11 9 8 9 11 11 10 10 10 10 11 13 14 13 13 13 13 12 11 9 8 6 9 12 5 6 7
14 14 12 13 17 19 20 20 19 18 17 16 14 14 13 12 12 11 10 10 12 13 13 13 13 11 12 14 17 17 15 15 15 14 13 10 10 8 11 10 7 7 6
11 12 13 13 15 18 20 20 19 19 18 17 15 14 14 13 13 11 10 10 10 11 14 15 16 14 13 14 18 20 19 17 17 16 15 13 11 9 11 13 9 7 6
12 11 12 13 14 15 16 20 20 19 18 16 14 14 13 13 12 11 10 7 8 11 13 14 15 15 15 15 18 21 22 20 20 19 17 15 13 11 11 10 6 6 5
15 12 13 13 13 15 16 19 20 18 16 12 11 11 12 13 12 12 13 13 15 14 13 13 14 14 15 16 18 20 22 23 22 21 19 17 15 12 10 9 7 6 5
17 15 15 14 12 12 14 16 17 15 12 9 6 7 10 12 14 17 18 17 16 16 17 17 16 16 16 16 18 19 21 22 23 22 21 20 18 15 10 10 10 9 8
19 17 17 15 15 14 12 12 12 9 7 5 7 10 12 14 17 18 18 19 17 18 19 20 21 18 21 20 20 20 21 23 24 25 24 22 20 17 12 10 11 10 9
23 23 20 19 16 16 14 12 11 11 10 9 9 9 12 14 16 19 22 22 21 22 22 22 23 24 23 24 22 21 23 24 26 27 26 24 20 17 14 13 12 11 11
27 26 26 23 18 16 15 13 13 13 12 13 12 12 12 15 18 20 20 22 21 20 20 21 24 28 26 29 25 23 23 23 27 28 28 26 23 20 17 15 13 11 12
32 29 28 25 21 18 17 16 15 15 16 15 14 13 15 17 17 20 20 20 21 22 23 22 23 25 30 31 28 22 21 18 22 33 37 29 27 25 23 19 17 16 14
33 33 31 29 24 23 22 20 19 17 16 15 15 19 22 21 21 21 23 22 21 23 22 23 23 24 26 31 26 23 26 26 30 37 38 34 32 29 29 25 20 20 19
32 32 31 30 26 23 22 19 17 16 13 14 16 12 12 15 19 22 23 24 24 26 24 26 24 25 25 31 27 27 17 28 32 38 40 38 37 34 34 26 22 23 23
26 27 29 29 25 22 19 18 15 13 12 7 7 13 15 17 19 22 24 26 25 26 25 29 25 27 25 26 30 26 11 13 33 37 41 39 37 36 33 27 26 28 28
22 22 25 25 22 20 17 15 13 8 5 9 13 17 17 15 16 17 19 23 27 27 28 27 28 27 25 26 25 26 35 20 18 15 33 38 34 34 32 29 30 32 29
18 22 22 21 20 18 15 13 9 8 8 12 15 15 14 13 14 16 17 19 22 25 27 28 27 25 24 23 25 26 26 40 26 20 25 35 39 37 34 32 34 31 32
19 20 20 20 19 17 13 10 8 8 10 13 13 14 15 18 17 18 18 19 19 21 23 25 25 22 24 23 26 30 29 35 37 33 24 33 40 40 38 36 35 35 32
Wind_Direction
168 172 173 168 173 174 176 173 165 154 146 143 138 129 134 137 136 133 133 131 132 134 137 139 136 133 138 139 133 127 112 102 91 84 90 94 93 91 89 87 82 84 86
163 170 175 174 175 179 179 175 165 157 154 148 144 148 148 143 143 139 136 133 132 135 144 143 137 138 141 143 142 139 128 118 107 100 87 82 82 85 84 81 79 79 83
169 172 176 176 178 182 182 178 174 172 170 169 166 165 158 158 152 147 147 147 147 148 148 143 144 146 150 150 147 148 148 141 136 120 110 85 79 82 89 90 91 89 85
171 176 179 178 181 186 188 187 185 185 185 186 185 181 176 168 163 161 155 149 150 153 162 154 161 166 166 163 159 161 163 164 159 138 135 124 104 93 94 86 91 93 94
167 174 181 181 183 189 191 194 193 193 193 190 189 184 178 175 182 173 156 151 149 162 178 179 186 197 196 192 181 185 188 196 185 167 154 173 141 125 97 112 113 105 105
165 174 181 183 187 193 196 199 197 197 197 198 200 199 196 192 200 196 176 163 165 174 190 195 208 212 218 219 212 203 206 204 213 204 183 170 152 175 203 172 201 125 103
160 170 182 188 192 198 203 204 203 201 201 202 207 209 217 218 218 217 216 191 197 208 213 214 222 227 231 230 222 217 216 213 214 213 211 200 190 245 266 181 131 115 140
162 170 181 188 194 199 204 205 208 208 208 209 212 219 225 233 238 237 245 246 243 222 215 222 229 238 235 233 234 222 213 216 215 205 199 211 256 274 288 259 239 233 198
173 183 185 188 193 198 202 205 207 207 211 215 221 228 234 244 246 247 253 264 265 259 246 239 234 238 242 241 236 221 218 218 215 215 230 250 271 280 298 292 262 258 242
180 185 189 190 194 198 201 205 208 213 218 223 226 230 239 249 252 256 272 268 264 264 261 253 243 241 249 244 239 226 222 220 225 236 248 259 273 281 312 327 278 236 236
184 184 189 192 197 202 206 209 212 217 222 222 228 233 240 250 257 266 279 273 271 271 270 267 258 243 242 248 242 233 230 230 232 242 245 259 269 291 322 330 261 244 246
195 194 193 196 201 207 212 217 219 220 223 227 232 241 246 254 264 267 277 282 280 284 284 282 274 262 245 245 248 239 232 237 239 244 252 257 268 298 322 333 268 246 251
209 211 211 204 205 213 218 221 224 227 231 233 236 241 247 255 263 272 279 289 296 300 292 290 288 278 261 246 249 251 244 240 243 248 254 255 262 280 311 319 273 239 235
218 222 223 217 215 219 224 227 231 234 236 239 242 246 254 262 266 270 280 282 304 307 319 292 287 285 275 257 246 249 250 235 244 248 253 252 256 279 307 319 283 241 226
224 219 217 214 218 225 230 228 231 235 238 242 244 255 262 266 271 276 280 276 279 288 286 288 281 281 278 273 261 251 250 249 246 245 247 250 254 263 287 303 292 252 209
222 221 213 209 211 223 228 228 232 235 237 235 241 263 274 277 278 280 279 279 279 291 287 273 275 279 274 269 265 259 251 251 250 247 244 249 253 257 267 279 285 266 213
225 224 216 209 210 216 217 219 222 218 213 220 246 263 272 276 274 276 276 277 273 277 280 270 264 271 274 269 262 253 247 243 246 248 249 242 246 252 264 264 271 269 209
235 228 219 213 213 216 213 204 205 207 217 230 245 265 275 279 282 280 278 277 275 281 281 278 269 260 265 265 261 250 247 246 249 248 245 241 241 241 241 253 265 260 240
240 230 223 215 212 217 219 213 216 224 229 243 254 259 263 269 272 274 279 278 275 278 279 279 279 276 265 259 256 241 234 243 246 244 241 237 240 240 235 232 237 211 210
240 235 225 218 212 214 222 227 230 234 242 247 252 264 270 271 272 273 275 277 271 272 275 277 280 283 276 262 258 247 228 239 259 257 239 235 233 234 234 229 229 217 206
235 233 221 216 212 213 215 221 227 229 235 244 254 261 274 266 271 271 272 279 271 271 275 280 281 280 282 273 263 248 247 249 244 229 230 231 226 232 234 222 222 220 207
229 224 215 213 211 212 215 222 225 229 234 249 258 264 281 284 281 280 277 269 264 274 273 281 283 284 281 278 252 241 220 227 227 230 226 223 225 221 217 218 218 213 205
219 215 206 209 208 211 215 217 220 237 231 226 275 295 299 288 279 279 278 275 272 269 278 277 275 279 276 270 260 239 207 214 226 227 229 229 220 217 213 216 213 211 199
211 202 202 206 207 206 212 213 223 205 238 284 299 299 295 280 290 291 287 283 272 270 268 271 272 274 273 271 258 254 238 233 202 211 227 223 220 216 218 211 206 205 211
192 194 195 198 195 197 194 189 199 237 267 293 304 296 287 295 306 311 304 288 276 272 272 270 267 269 265 269 272 256 264 246 236 220 205 212 215 217 215 213 210 210 202
167 172 175 179 180 181 191 211 240 264 290 304 309 307 306 300 310 309 305 299 286 278 273 271 273 266 267 270 271 261 267 250 240 234 229 218 210 209 209 207 206 205 214